Bismarck, ND

3:42 PM CDT on August 19, 2017 (GMT -0500)
Bismarck Municipal

Weather History for KBIS - November, 2014

Change the Weather History Date:

Wednesday, November 5, 2014

  Actual Average Record
Temperature  
Mean Temperature 36 °F 35 °F  
Max Temperature 45 °F 46 °F 76 °F (2016)
Min Temperature 26 °F 24 °F -8 °F (1951)
Degree Days  
Heating Degree Days 29 30  
Month to date heating degree days 125 145  
Since 1 July heating degree days 901 1057  
Cooling Degree Days 0 0  
Month to date cooling degree days 0 0  
Year to date cooling degree days 457 520  
Moisture  
Dew Point 34 °F    
Average Humidity 83    
Maximum Humidity 100    
Minimum Humidity 65    
Precipitation  
Precipitation 0.01 in 0.02 in 0.83 in (2008)
Month to date precipitation 0.02 0.14  
Year to date precipitation 13.23 16.79  
Snow  
Snow 0.00 in 0.20 in 7.00 in (1895)
Month to date snowfall 0.0 1.1  
Since 1 July snowfall 0.0 3.5  
Since 1 September snowfall 0.0 3.5  
Snow Depth 0.00 in    
Sea Level Pressure  
Sea Level Pressure 30.07 in    
Wind  
Wind Speed 12 mph (NW)    
Max Wind Speed 35 mph    
Max Gust Speed 45 mph    
Visibility 10 miles    
Events Rain    
T = Trace of Precipitation, MM = Missing Value Source: NWS Daily Summary

Daily Weather History Graph

Daily Weather History Graph

Search for Another Location

Airport or City:

Trip Planner

Search our weather history database for the weather conditions in past years. The results will help you decide how hot, cold, wet, or windy it might be!

Date:

Astronomy

Nov. 05, 2014 Rise Set
Actual Time 7:31 AM CST 5:21 PM CST
Civil Twilight 6:59 AM CST 5:53 PM CST
Nautical Twilight 6:22 AM CST 6:29 PM CST
Astronomical Twilight 5:47 AM CST 7:04 PM CST
Moon 4:52 PM CST (11/5) 5:52 AM CST (11/5)
Length of Visible Light 10h 54m
Length of Day
9h 50m
Waxing Gibbous, 98% of the Moon is Illuminated
Nov 5
Waxing Gibbous
Nov 6
Full
Nov 14
Last Quarter
Nov 22
New
Nov 29
First Quarter

Hourly Weather History & Observations

Time (CST) Temp. Windchill Dew Point Humidity Pressure Visibility Wind Dir Wind Speed Gust Speed Precip Events Conditions
12:52 AM 39.0 °F 35.7 °F 36.0 °F 89% 29.91 in 10.0 mi ENE 4.6 mph - 0.00 in Rain Light Rain
1:52 AM 39.0 °F 34.8 °F 36.0 °F 89% 29.89 in 10.0 mi ENE 5.8 mph - 0.00 in Rain Light Rain
2:52 AM 39.0 °F 34.0 °F 37.0 °F 93% 29.88 in 10.0 mi ENE 6.9 mph - 0.01 in Rain Light Rain
3:52 AM 37.0 °F 34.5 °F 36.0 °F 96% 29.86 in 10.0 mi East 3.5 mph - 0.00 in   Mostly Cloudy
4:52 AM 36.0 °F - 36.0 °F 100% 29.85 in 10.0 mi Calm Calm - N/A   Clear
5:52 AM 34.0 °F - 33.1 °F 96% 29.87 in 10.0 mi Calm Calm - N/A   Clear
6:52 AM 34.0 °F - 33.1 °F 96% 29.88 in 10.0 mi Calm Calm - N/A   Clear
7:52 AM 39.9 °F 33.4 °F 39.0 °F 97% 29.91 in 10.0 mi WNW 10.4 mph - N/A   Clear
8:35 AM 44.1 °F 36.5 °F 39.0 °F 82% 29.90 in 10.0 mi NW 17.3 mph 27.6 mph N/A   Mostly Cloudy
8:52 AM 44.1 °F 34.8 °F 39.0 °F 82% 29.95 in 9.0 mi NW 25.3 mph 34.5 mph N/A   Overcast
9:52 AM 44.1 °F 35.7 °F 39.0 °F 82% 29.99 in 10.0 mi NW 20.7 mph 33.4 mph N/A   Overcast
10:52 AM 44.6 °F 35.9 °F 37.4 °F 76% 29.97 in 10.0 mi NW 23.0 mph 28.8 mph N/A   Overcast
11:52 AM 44.1 °F 35.0 °F 37.0 °F 76% 30.04 in 10.0 mi WNW 24.2 mph 35.7 mph N/A   Overcast
12:52 PM 43.0 °F 33.8 °F 34.0 °F 71% 30.06 in 10.0 mi NW 23.0 mph 38.0 mph N/A   Overcast
1:24 PM 45.0 °F 36.2 °F 34.0 °F 65% 30.02 in 10.0 mi NW 24.2 mph 35.7 mph N/A   Overcast
1:33 PM 45.0 °F 36.4 °F 34.0 °F 65% 30.03 in 10.0 mi WNW 23.0 mph 35.7 mph N/A   Overcast
1:52 PM 44.1 °F 34.8 °F 34.0 °F 68% 30.07 in 10.0 mi WNW 25.3 mph 38.0 mph N/A   Overcast
2:52 PM 43.0 °F 33.8 °F 34.0 °F 71% 30.10 in 10.0 mi NW 23.0 mph 36.8 mph N/A   Overcast
3:52 PM 42.1 °F 32.1 °F 33.1 °F 70% 30.14 in 10.0 mi NW 25.3 mph 44.9 mph N/A   Overcast
4:52 PM 41.0 °F 31.6 °F 33.1 °F 73% 30.18 in 10.0 mi NW 20.7 mph 33.4 mph N/A   Overcast
5:52 PM 39.0 °F 29.0 °F 32.0 °F 76% 30.24 in 10.0 mi NNW 20.7 mph 32.2 mph N/A   Overcast
6:36 PM 37.9 °F 29.6 °F 30.9 °F 76% 30.21 in 10.0 mi NNW 13.8 mph - N/A   Overcast
6:52 PM 37.9 °F 29.6 °F 30.9 °F 76% 30.27 in 10.0 mi NNW 13.8 mph - N/A   Overcast
7:52 PM 37.9 °F 31.5 °F 32.0 °F 79% 30.29 in 10.0 mi NNW 9.2 mph - N/A   Overcast
8:52 PM 35.1 °F 30.1 °F 30.9 °F 85% 30.29 in 10.0 mi NW 5.8 mph - N/A   Scattered Clouds
9:52 PM 30.9 °F - 28.9 °F 92% 30.31 in 10.0 mi Calm Calm - N/A   Clear
10:52 PM 28.0 °F - 27.0 °F 96% 30.32 in 10.0 mi Calm Calm - N/A   Clear
11:52 PM 28.0 °F 22.8 °F 26.1 °F 92% 30.32 in 10.0 mi WNW 4.6 mph - N/A   Clear